Location: La Trinit�
(48.1620°N, 3.4512°W)
Time: 09:37:45
(UTC+00:00)

Cosmos 1709 Rocket - Pass Details

Date: 08 May 2021
Orbit: 947 x 1002 km, 82.9° (Epoch: 12 June)

Event Time Altitude Azimuth Distance (km) Brightness Sun altitude
Rises 21:30:51 0° 348° (NNW) 3,643 8.2 -15.5°
Reaches altitude 10° 21:33:22 10° 346° (NNW) 2,689 7.4 -15.7°
Maximum altitude 21:39:25 64° 266° (W) 1,045 4.3 -16.4°
Enters shadow 21:44:35 14° 188° (S) 2,359 5.6 -16.9°
